Printer-friendly version

IAU Minor Planet Center

Minor Planet Center

MPEC 2007-W15 : 2007 VO243

The following Minor Planet Electronic Circular may be linked-to from your own Web pages, but must not otherwise be redistributed electronically.


Read MPEC 2007-W14 Read MPEC 2007-W16


M.P.E.C. 2007-W15                                Issued 2007 Nov. 17, 22:03 UT

     The Minor Planet Electronic Circulars contain information on unusual
         minor planets and routine data on comets.  They are published
   on behalf of Commission 20 of the International Astronomical Union by the
          Minor Planet Center, Smithsonian Astrophysical Observatory,
                          Cambridge, MA 02138, U.S.A.

             Prepared using the Tamkin Foundation Computer Network

                              MPC@CFA.HARVARD.EDU
          URL http://www.cfa.harvard.edu/iau/mpc.html  ISSN 1523-6714

                                  2007 VO243

Observations:
     K07VO3O* C2007 11 15.26315 04 30 02.70 +05 38 27.4          21.1 V EW015703
     K07VO3O  C2007 11 15.26970 04 30 01.90 +05 38 31.8          20.9 V EW015703
     K07VO3O  C2007 11 15.27624 04 30 01.26 +05 38 35.4          20.5 V EW015703
     K07VO3O  C2007 11 15.28274 04 30 00.64 +05 38 38.5          20.1 V EW015703
     K07VO3O  C2007 11 15.35018 04 29 52.72 +05 39 13.1          19.4 V EW015703
     K07VO3O  C2007 11 15.35817 04 29 51.90 +05 39 16.8          19.6 V EW015703
     K07VO3O  C2007 11 15.36617 04 29 51.03 +05 39 21.5          19.8 V EW015703
     K07VO3O  C2007 11 15.38995 04 29 48.44 +05 39 34.2          20.0 V EW015703
     K07VO3O  C2007 11 16.24335304 28 16.30 +05 46 55.3          20.3 V EW015H55
     K07VO3O  C2007 11 16.24724304 28 15.87 +05 46 57.7          20.2 V EW015H55
     K07VO3O  C2007 11 16.25229504 28 15.29 +05 47 00.2          20.2 V EW015H55
     K07VO3O  C2007 11 16.30779 04 28 09.25 +05 47 31.3          19.9 V EW015703
     K07VO3O  C2007 11 16.31149 04 28 08.92 +05 47 33.2          19.5 V EW015703
     K07VO3O  C2007 11 16.31522 04 28 08.48 +05 47 34.8                 EW015703
     K07VO3O  C2007 11 16.31896 04 28 08.06 +05 47 37.9                 EW015703
     K07VO3O  C2007 11 17.29689 04 26 22.07 +05 56 13.8          19.5 V EW015703
     K07VO3O  C2007 11 17.30185 04 26 21.50 +05 56 18.3          19.4 V EW015703
     K07VO3O  C2007 11 17.30689 04 26 20.88 +05 56 20.2          19.9 V EW015703
     K07VO3O  C2007 11 17.31189 04 26 20.28 +05 56 23.0                 EW015703
     K07VO3O  C2007 11 17.36318 04 26 14.54 +05 56 50.1                 EW015701
     K07VO3O  C2007 11 17.38541 04 26 12.07 +05 57 01.6                 EW015701
     K07VO3O  C2007 11 17.40763 04 26 09.50 +05 57 13.9                 EW015701
     K07VO3O  C2007 11 17.42985 04 26 06.98 +05 57 26.0                 EW015701
     K07VO3O  C2007 11 17.53935 04 25 55.62 +05 58 42.5          19.9 R EW015474
     K07VO3O  C2007 11 17.54144 04 25 55.39 +05 58 43.4          19.9 R EW015474
     K07VO3O  C2007 11 17.54676 04 25 54.80 +05 58 46.3          19.4 R EW015474

Observer details:
474 Mount John Observatory, Lake Tekapo.  Observer A. C. Gilmore.  1.0-m f/7.7
    reflector + CCD.
701 Junk Bond Observatory, Sierra Vista.  Observer D. Healy.  0.81-m f/4.4
    Ritchey-Chretien + CCD.
703 Catalina Sky Survey.  Observers R. E. Hill, R. A. Kowalski.  Measurers
    E. C. Beshore, A. Boattini, G. J. Garradd, A. R. Gibbs, A. D. Grauer,
    R. E. Hill, R. A. Kowalski, S. M. Larson, R. H. McNaught.  0.68-m Schmidt
    + CCD.
H55 Astronomical Research Observatory, Charleston.  Observer R. Holmes.
    0.61-m f/4.0 astrograph + CCD.

Orbital elements:
2007 VO243                                               Earth MOID = 0.1440 AU
Epoch 2007 Oct. 27.0 TT = JDT 2454400.5                 MPC
M  38.41509              (2000.0)            P               Q
n   0.38749007     Peri.  230.43106     +0.81426502     +0.55421667
a   1.8633553      Node    95.24813     -0.46511030     +0.80087021
e   0.4072683      Incl.    9.98562     -0.34733973     +0.22682767
P   2.54           H   19.4           G   0.15           U   8
Residuals in seconds of arc
071115 703  0.0   0.9-    071116 H55  0.3+  0.0     071117 703  1.2-  0.1+
071115 703  1.0-  0.1+    071116 H55  0.1+  0.1-    071117 701  0.2+  0.5-
071115 703  0.5+  0.3+    071116 703  0.9-  0.4+    071117 701  1.0+  0.8-
071115 703 (2.2+  0.0 )   071116 703  0.4+  0.3+    071117 701  0.2+  0.4-
071115 703 (2.0-  0.1-)   071116 703  0.2+  0.0     071117 701  0.0   0.1-
071115 703  0.8-  0.6-    071116 703  0.2+  1.1+    071117 474  0.1-  0.5+
071115 703  0.2-  0.0     071117 703  0.1+  1.1-    071117 474  0.0   0.3+
071115 703  1.3+  0.5+    071117 703  0.0   0.8+    071117 474  0.1+  0.3+
071116 H55  0.1+  0.3-    071117 703  0.7-  0.0

Ephemeris:
2007 VO243               a,e,i = 1.86, 0.41, 10                  q = 1.1045
Date    TT    R. A. (2000) Decl.     Delta      r     Elong.  Phase     V
2007 11 16    04 28.71   +05 44.9    0.611    1.576   159.5    12.7    20.1
2007 11 26    04 11.00   +07 19.2    0.656    1.632   166.4     8.2    20.1
2007 12 06    03 55.73   +09 02.7    0.723    1.688   161.7    10.6    20.5
2007 12 16    03 44.73   +10 49.0    0.812    1.742   151.6    15.6    21.0
2007 12 26    03 38.65   +12 33.7    0.921    1.796   141.2    20.1    21.5
2008 01 05    03 37.20   +14 14.3    1.045    1.848   131.3    23.6    21.9

Timothy B. Spahr             (C) Copyright 2007 MPC           M.P.E.C. 2007-W15

Read MPEC 2007-W14 Read MPEC 2007-W16


Our Web policy. Index to the CBAT/MPC/ICQ pages.


Valid HTML 4.01!